CZ-6A DEB, 54629

Orbit data source: Space-Track

CZ-6A DEB, 54629 is space debris in SSO originally from a launch on Fri, 11 Nov 2022 UTC launched from the Taiyaun Space Center, China (TSC). Debris objects in space refer to the collection of defunct objects orbiting the Earth. Examples of debris include non-operational satellites, rocket bodies, and fragments generated from explosions, collisions, or faulty payload assembly.

Loading next visibility...
Identifier
54629, 2022-151PF
Orbit
SSO
Country
Flag of CNCN / PRC
Related business
Manufacturer
SAST
Mission
Spacecraft
Bus & Motor
Unknown
Mass
Unknown
Launch date (UTC)
2022-11-11 (3 years ago)
Launch vehicle
Unknown
Launch site
Taiyaun Space Center, China (TSC)
Object type
Payload
Rocket body
Debris
Shape & HBR
Unknown shape, 0.1 m
Radar Cross Section
Small (<0.1 m²)

Expand to show TLE details & history
Last TLE update: 10 hours ago

TLE from 10 hours ago
0 CZ-6A DEB
1 54629U 22151PF  25355.15098124  .00010058  00000-0  15310-2 0  9993
2 54629  98.6416  51.3564 0071489 105.4599 255.4517 14.72431618163318
Epoch: 2025-12-21T03:37Z
TLE epoch observation values (Epoch: 2025-12-21T03:37:24.779Z)
Latitude
0.00003°
Longitude
-92.9644°
Altitude
669.27 km
Speed
7.515 km/s
True Right ascension
03h 25m 25s
True Declination
0° 00' 00"
Sunlit
Object was in full shadow at epoch
Visualization orbit readout
Latitude
Unknown
Longitude
Unknown
Altitude
Unknown
Speed
Unknown
Apparent Right ascension
Unknown
Apparent Declination
Unknown
Sunlit
N/A
Visualization observer readout
Local Sidereal Time
12:18:20
Azimuth
Unknown
Elevation
Unknown
Doppler factor
Unknown
Orbital elements
Apogee altitude
700.648 km
Perigee altitude
600.155 km
Semi-major axis
7,028.538 km
Eccentricity
0.00715
Inclination
98.6416°
RAAN
51.3564°
Arg. of periapsis
105.4599°
True anomaly
254.66056°
Mean anomaly
255.4517°
Eccentric anomaly
255.05595°
Mean motion
3.68337 °/min
Orbital period
97.74 mins
BSTAR
0.001531
Loading maneuver chart data...
Computing Atmospheric mass density...
Loading historical data...
Loading historical data...
Loading historical data...
Loading historical data...
Loading historical data...
Loading historical data...
Loading historical data...

Documentation

Showing up to 5 results
|